Regional Weather Roundup
Issued by NWS Cleveland, OH

Home | Current Version | Previous Version | Text Only | Print | Product List | Glossary Off
Versions: 1 2 3 4 5 6 7 8 9 10 11 12 13 14 15 16 17 18 19 20 21 22 23 24 25 26 27 28 29 30 31 32 33 34 35 36 37 38 39 40 41 42 43 44 45 46 47 48 49 50

058
ASUS41 KCLE 211610
RWRCLE
OHIO REGIONAL WEATHER ROUNDUP
NATIONAL WEATHER SERVICE CLEVELAND, OH
1200 PM EDT SAT OCT 21 2017

NOTE: "FAIR" INDICATES FEW OR NO CLOUDS BELOW 12,000 FEET WITH NO
SIGNIFICANT WEATHER AND/OR OBSTRUCTIONS TO VISIBILITY.

OHZ001>008-015>018-024>027-034-035-043-044-211700-
   NORTHWEST OHIO

CITY           SKY/WX    TMP DP  RH WIND       PRES   REMARKS
DEFIANCE       CLOUDY    66  53  63 S8        30.21F
FINDLAY        CLOUDY    70  53  54 S10       30.23S
TOLEDO EXPRESS CLOUDY    69  56  62 SW8       30.22S
TOLEDO EXEC    CLOUDY    70  54  56 S12       30.23F
LIMA           MOSUNNY   69  54  58 S12       30.23S
$$

OHZ009>014-019>023-028>033-038-089-211700-
   NORTHEAST OHIO

CITY           SKY/WX    TMP DP  RH WIND       PRES   REMARKS
CLE-HOPKINS    PTSUNNY   71  47  42 S10       30.28F
CLE-LAKEFRONT  MOSUNNY   70  46  42 S9        30.25F
CUY CO. ARPT   MOSUNNY   72  48  43 S9        30.28S
LORAIN-ELYRIA  MOSUNNY   67  44  43 S7        30.27F
ASHTABULA      MOSUNNY   64  44  48 S8        30.30F
AKRON-CANTON   CLOUDY    65  45  48 S6        30.29F
WOOSTER        MOSUNNY   67  47  48 VRB5      30.29S
MANSFIELD      PTSUNNY   68  51  54 S10       30.27F
YOUNGSTOWN     PTSUNNY   67  45  45 S5        30.30F
$$

OHZ042-051>053-060>062-070>072-077>081-211700-
  SOUTHWEST OHIO

CITY           SKY/WX    TMP DP  RH WIND       PRES   REMARKS
CINC-COVINGTON PTSUNNY   68  52  56 SW6       30.25S
CINC-LUNKEN    SUNNY     68  57  68 VRB7      30.26F
HAMILTON       SUNNY     70  54  56 VRB6      30.26S
DAYTON         PTSUNNY   69  55  60 S8        30.25S
WRIGHT-PAT AFB PTSUNNY   69  53  55 S12       30.25S
DAYTON GENERAL SUNNY     68  53  58 S10       30.25S
WILMINGTON     SUNNY     70  54  56 SW8       30.26S HAZE
$$

OHZ036-037-039>041-045>050-054>059-063>069-073>076-082>088-211700-
  CENTRAL AND SOUTHEAST OHIO

CITY           SKY/WX    TMP DP  RH WIND       PRES   REMARKS
COLUMBUS       PTSUNNY   68  50  52 S6        30.27S
OSU AIRPORT    MOSUNNY   67  52  58 VRB5      30.27S
BOLTON FIELD   SUNNY     68  54  60 S8        30.17F
RICKENBACK AFB PTSUNNY   65  51  59 SW6       30.27S
NEWARK         SUNNY     65  48  54 CALM      30.27F
MARION         PTSUNNY   69  50  50 S12       30.26F
LANCASTER      MOSUNNY   66  53  63 CALM      30.28S
ZANESVILLE     SUNNY     67  49  52 CALM      30.28F
NEW PHILLY     NOT AVBL
$$




USA.gov is the U.S. government's official web portal to all federal, state and local government web resources and services.